When you browse on this site, cookies collect data to enhance your experience and personalize the content and advertising you see.
Visit our Privacy Policy to learn more. By continuing to use the site, you agree to this use of cookies and data.
  • In Österreich
  • Länderverzeichnis
  • Für 7 Tage
  • Wassertemperatur
  • Wetterkarte
  • News
  • Widgets
  • user-avatar
    Anmelden

    Stündliche Wetter Stanton

    Heute, 2 Juni, Dienstag

    Zeit Temperatur Niederschläge Wind Luftdruck Luftfeuchtigkeit
    00:00 +23°C° 0 mm 2 m/S 757 mmHg 60%
    01:00 +23°C° 0 mm 2 m/S 757 mmHg 63%
    02:00 +21°C° 0 mm 2 m/S 757 mmHg 65%
    03:00 +22°C° 0 mm 1 m/S 757 mmHg 67%
    04:00 +22°C° 0 mm 1 m/S 757 mmHg 71%
    05:00 +22°C° 0 mm 1 m/S 757 mmHg 69%
    06:00 +22°C° 0 mm 1 m/S 758 mmHg 67%
    07:00 +23°C° 0 mm 1 m/S 758 mmHg 65%
    08:00 +24°C° 0 mm 2 m/S 758 mmHg 61%
    09:00 +25°C° 0 mm 2 m/S 758 mmHg 57%
    10:00 +26°C° 0 mm 2 m/S 758 mmHg 53%
    11:00 +27°C° 0 mm 2 m/S 758 mmHg 50%
    12:00 +28°C° 0 mm 3 m/S 758 mmHg 47%
    13:00 +29°C° 0 mm 3 m/S 758 mmHg 44%
    14:00 +28°C° 0 mm 4 m/S 758 mmHg 45%
    15:00 +28°C° 0 mm 4 m/S 758 mmHg 47%
    16:00 +27°C° 0 mm 4 m/S 758 mmHg 48%
    17:00 +26°C° 0 mm 3 m/S 758 mmHg 52%
    18:00 +26°C° 0 mm 2 m/S 759 mmHg 55%
    19:00 +25°C° 0 mm 2 m/S 759 mmHg 59%
    20:00 +24°C° 0 mm 1 m/S 759 mmHg 59%
    21:00 +24°C° 0 mm 1 m/S 759 mmHg 60%
    22:00 +24°C° 0 mm 1 m/S 760 mmHg 61%
    23:00 +24°C° 0 mm 1 m/S 759 mmHg 61%

    Morgen, 3 Juni, Mittwoch

    Zeit Temperatur Niederschläge Wind Luftdruck Luftfeuchtigkeit
    00:00 +24°C° 0 mm 1 m/S 759 mmHg 61%
    01:00 +24°C° 0 mm 1 m/S 759 mmHg 62%
    02:00 +23°C° 0 mm 2 m/S 758 mmHg 63%
    03:00 +22°C° 0 mm 3 m/S 758 mmHg 65%
    04:00 +22°C° 0 mm 3 m/S 758 mmHg 66%
    05:00 +23°C° 0 mm 2 m/S 758 mmHg 64%
    06:00 +24°C° 0 mm 2 m/S 758 mmHg 61%
    07:00 +24°C° 0 mm 1 m/S 758 mmHg 58%
    08:00 +26°C° 0 mm 1 m/S 758 mmHg 51%
    09:00 +28°C° 0 mm 2 m/S 758 mmHg 44%
    10:00 +30°C° 0 mm 2 m/S 758 mmHg 37%
    11:00 +31°C° 0 mm 3 m/S 758 mmHg 35%
    12:00 +32°C° 0 mm 4 m/S 757 mmHg 34%
    13:00 +33°C° 0 mm 5 m/S 757 mmHg 32%
    14:00 +33°C° 0 mm 4 m/S 757 mmHg 32%
    15:00 +33°C° 0 mm 4 m/S 756 mmHg 32%
    16:00 +33°C° 0 mm 4 m/S 756 mmHg 32%
    17:00 +30°C° 0 mm 4 m/S 756 mmHg 37%
    18:00 +29°C° 0 mm 3 m/S 756 mmHg 41%
    19:00 +27°C° 0 mm 3 m/S 756 mmHg 45%
    20:00 +27°C° 0 mm 3 m/S 756 mmHg 49%
    21:00 +26°C° 0 mm 2 m/S 756 mmHg 52%
    22:00 +25°C° 0 mm 2 m/S 757 mmHg 56%
    23:00 +25°C° 0 mm 2 m/S 756 mmHg 56%

    übermorgen, 4 Juni, Donnerstag

    Zeit Temperatur Niederschläge Wind Luftdruck Luftfeuchtigkeit
    00:00 +24°C° 0 mm 2 m/S 756 mmHg 57%
    01:00 +24°C° 0 mm 1 m/S 756 mmHg 57%
    02:00 +24°C° 0 mm 1 m/S 756 mmHg 58%
    03:00 +24°C° 0 mm 1 m/S 755 mmHg 59%
    04:00 +23°C° 0 mm 1 m/S 755 mmHg 59%
    05:00 +24°C° 0 mm 1 m/S 755 mmHg 57%
    06:00 +24°C° 0 mm 1 m/S 755 mmHg 55%
    07:00 +25°C° 0 mm 1 m/S 756 mmHg 53%
    08:00 +26°C° 0 mm 2 m/S 755 mmHg 49%
    09:00 +27°C° 0 mm 2 m/S 755 mmHg 44%
    10:00 +29°C° 0 mm 3 m/S 755 mmHg 40%
    11:00 +29°C° 0 mm 3 m/S 755 mmHg 39%
    12:00 +30°C° 0 mm 3 m/S 755 mmHg 38%
    13:00 +30°C° 0 mm 4 m/S 755 mmHg 38%
    14:00 +29°C° 0 mm 4 m/S 754 mmHg 39%
    15:00 +29°C° 0 mm 4 m/S 754 mmHg 41%
    16:00 +28°C° 0 mm 4 m/S 753 mmHg 42%
    17:00 +27°C° 0 mm 3 m/S 754 mmHg 46%
    18:00 +26°C° 0 mm 3 m/S 754 mmHg 50%
    19:00 +25°C° 0 mm 3 m/S 754 mmHg 54%
    20:00 +24°C° 0 mm 2 m/S 754 mmHg 57%
    21:00 +24°C° 0 mm 2 m/S 755 mmHg 60%
    22:00 +23°C° 0 mm 2 m/S 755 mmHg 63%
    23:00 +21°C° 0 mm 2 m/S 755 mmHg 65%

    5 Juni, Freitag

    Zeit Temperatur Niederschläge Wind Luftdruck Luftfeuchtigkeit
    00:00 +21°C° 0 mm 2 m/S 754 mmHg 68%
    01:00 +20°C° 0 mm 2 m/S 754 mmHg 70%
    02:00 +20°C° 0 mm 2 m/S 754 mmHg 71%
    03:00 +20°C° 0 mm 2 m/S 754 mmHg 71%
    04:00 +20°C° 0 mm 2 m/S 753 mmHg 71%
    05:00 +20°C° 0 mm 2 m/S 754 mmHg 71%
    06:00 +20°C° 0 mm 2 m/S 754 mmHg 70%
    07:00 +21°C° 0 mm 2 m/S 754 mmHg 70%
    08:00 +21°C° 0 mm 3 m/S 754 mmHg 65%
    09:00 +22°C° 0 mm 3 m/S 754 mmHg 61%
    10:00 +23°C° 0 mm 4 m/S 754 mmHg 56%
    11:00 +23°C° 0 mm 4 m/S 754 mmHg 56%
    12:00 +25°C° 0 mm 5 m/S 754 mmHg 56%
    13:00 +24°C° 0 mm 6 m/S 754 mmHg 57%
    14:00 +23°C° 0 mm 5 m/S 754 mmHg 58%
    15:00 +23°C° 0 mm 5 m/S 754 mmHg 60%
    16:00 +22°C° 0 mm 5 m/S 754 mmHg 61%
    17:00 +21°C° 0 mm 4 m/S 754 mmHg 63%
    18:00 +21°C° 0 mm 4 m/S 754 mmHg 66%
    19:00 +20°C° 0 mm 3 m/S 755 mmHg 68%
    20:00 +20°C° 0 mm 3 m/S 755 mmHg 69%
    21:00 +19°C° 0 mm 3 m/S 756 mmHg 69%
    22:00 +19°C° 0 mm 3 m/S 756 mmHg 70%
    23:00 +19°C° 0 mm 3 m/S 756 mmHg 70%

    6 Juni, Samstag

    Zeit Temperatur Niederschläge Wind Luftdruck Luftfeuchtigkeit
    00:00 +19°C° 0 mm 3 m/S 756 mmHg 70%
    01:00 +19°C° 0 mm 3 m/S 756 mmHg 69%
    02:00 +19°C° 0 mm 3 m/S 756 mmHg 69%
    03:00 +19°C° 0 mm 2 m/S 756 mmHg 69%
    04:00 +19°C° 0 mm 2 m/S 757 mmHg 69%
    05:00 +19°C° 0 mm 2 m/S 757 mmHg 68%
    06:00 +19°C° 0 mm 2 m/S 757 mmHg 67%
    07:00 +19°C° 0 mm 2 m/S 757 mmHg 66%
    08:00 +20°C° 0 mm 2 m/S 757 mmHg 63%
    09:00 +21°C° 0 mm 2 m/S 757 mmHg 60%
    10:00 +22°C° 0 mm 3 m/S 757 mmHg 56%
    11:00 +22°C° 0 mm 4 m/S 757 mmHg 55%
    12:00 +23°C° 0 mm 4 m/S 756 mmHg 54%
    13:00 +23°C° 0 mm 5 m/S 756 mmHg 52%
    14:00 +23°C° 0 mm 5 m/S 756 mmHg 52%
    15:00 +23°C° 0 mm 5 m/S 756 mmHg 52%
    16:00 +23°C° 0 mm 5 m/S 755 mmHg 52%
    17:00 +23°C° 0 mm 5 m/S 756 mmHg 53%
    18:00 +22°C° 0 mm 5 m/S 756 mmHg 55%
    19:00 +21°C° 0 mm 5 m/S 756 mmHg 56%
    20:00 +21°C° 0 mm 4 m/S 756 mmHg 57%
    21:00 +20°C° 0 mm 3 m/S 756 mmHg 58%
    22:00 +20°C° 0 mm 3 m/S 757 mmHg 58%
    23:00 +19°C° 0 mm 3 m/S 756 mmHg 58%

    7 Juni, Sonntag

    Zeit Temperatur Niederschläge Wind Luftdruck Luftfeuchtigkeit
    00:00 +19°C° 0 mm 3 m/S 756 mmHg 58%
    01:00 +19°C° 0 mm 3 m/S 756 mmHg 58%
    02:00 +18°C° 0 mm 3 m/S 756 mmHg 58%
    03:00 +18°C° 0 mm 3 m/S 756 mmHg 59%
    04:00 +18°C° 0 mm 3 m/S 756 mmHg 59%
    05:00 +18°C° 0 mm 2 m/S 756 mmHg 58%
    06:00 +19°C° 0 mm 2 m/S 756 mmHg 57%
    07:00 +19°C° 0 mm 2 m/S 756 mmHg 56%
    08:00 +20°C° 0 mm 2 m/S 756 mmHg 51%
    09:00 +21°C° 0 mm 3 m/S 757 mmHg 47%
    10:00 +22°C° 0 mm 3 m/S 757 mmHg 43%
    11:00 +23°C° 0 mm 4 m/S 756 mmHg 40%
    12:00 +25°C° 0 mm 5 m/S 756 mmHg 38%
    13:00 +24°C° 0 mm 6 m/S 755 mmHg 36%
    14:00 +26°C° 0 mm 6 m/S 755 mmHg 34%
    15:00 +26°C° 0 mm 6 m/S 755 mmHg 32%
    16:00 +26°C° 0 mm 6 m/S 754 mmHg 30%
    17:00 +24°C° 0 mm 6 m/S 754 mmHg 32%
    18:00 +24°C° 0 mm 6 m/S 754 mmHg 34%
    19:00 +23°C° 0 mm 5 m/S 755 mmHg 36%
    20:00 +23°C° 0 mm 5 m/S 755 mmHg 38%
    21:00 +22°C° 0 mm 4 m/S 755 mmHg 40%
    22:00 +21°C° 0 mm 3 m/S 756 mmHg 42%
    23:00 +21°C° 0 mm 3 m/S 756 mmHg 44%
    Mehr zeigen